Flag for Moldova Weather past 2 weeks in Tiraspol, Moldova

Now
70 °F

Passing clouds.


Feels Like: 70 °F
Forecast: 50 / 74 °F
Wind: 9 mph from Northeast

Location: Chisinau International Airport


UV Index: 3 (Moderate)

Visibility: N/A


Pressure: 29.98 "Hg

Humidity: 35%

Dew point: 41 °F

Location of TiraspolLocation

Historic Weather in Tiraspol

°F

Tiraspol temperature yesterday

Maximum temperature yesterday: 48 °F (at 3:30 PM)
Minimum temperature yesterday: 43 °F (at 5:30 AM)
Average temperature yesterday: 46 °F

Past Weeks' High & Low Weather Summary

 TemperatureHumidityPressure
High75 °F (Apr 9, 2:00 PM)94% (Apr 10, 11:00 PM)30.30 "Hg (Apr 10, 11:00 PM)
Low32 °F (Apr 3, 3:00 AM)20% (Apr 2, 5:00 PM)29.71 "Hg (Apr 9, 4:30 PM)
Average49 °F65%29.97 "Hg
* Reported Apr 2 3:00 PM — Apr 17 3:30 PM, Tiraspol, Weather by CustomWeather, © 2014

Note: Actual official high and low records may vary slightly from our data, if they occured in-between our weather recording intervals... More about our weather records

Advertising

Historic Weather Conditions — Data for Previous 24 hours

 ConditionsComfort  
Time TempWeatherWind HumidityBarometerVisibility
3:30 PM
Apr 17
70 °FPassing clouds.9 mph40%30.01 "HgN/A
3:00 PM68 °FPassing clouds.8 mph40%30.01 "HgN/A
2:30 PM66 °FPassing clouds.10 mph46%30.04 "HgN/A
2:00 PM64 °FPassing clouds.10 mph56%30.04 "HgN/A
1:30 PM63 °FScattered clouds.7 mph64%30.07 "HgN/A
1:00 PM63 °FScattered clouds.6 mph64%30.07 "HgN/A
12:30 PM57 °FPartly sunny.7 mph72%30.07 "HgN/A
12:00 PM55 °FPartly sunny.20 mph77%30.04 "HgN/A
11:30 AM55 °FPartly sunny.14 mph77%30.07 "HgN/A
11:00 AM54 °FPartly sunny.8 mph77%30.09 "Hg6 mi
10:30 AM52 °FPartly sunny.9 mph82%30.09 "Hg5 mi
10:00 AM50 °FPartly sunny.10 mph88%30.09 "Hg4 mi
9:30 AM50 °FPartly sunny.12 mph88%30.09 "Hg4 mi
9:00 AM50 °FPartly sunny.5 mph88%30.09 "Hg4 mi
8:30 AM50 °FLow clouds.3 mph82%30.09 "Hg4 mi
8:00 AM48 °FFog.6 mph87%30.07 "Hg3 mi
7:30 AM48 °FFog.5 mph87%30.07 "Hg2 mi
7:00 AM48 °FFog.6 mph87%30.07 "Hg2 mi
6:00 AM46 °FFog.5 mph93%30.07 "Hg2 mi
5:30 AM48 °FFog.6 mph87%30.07 "Hg2 mi
5:00 AM48 °FFog.6 mph87%30.07 "Hg3 mi
4:30 AM48 °FFog.3 mph87%30.07 "Hg3 mi
4:00 AM48 °FFog.5 mph87%30.07 "Hg3 mi
3:30 AM48 °FFog.5 mph87%30.07 "Hg3 mi
3:00 AM48 °FFog.5 mph87%30.07 "Hg3 mi
2:30 AM48 °FMostly cloudy.3 mph94%30.07 "Hg4 mi
2:00 AM48 °FMostly cloudy.5 mph94%30.07 "Hg4 mi
1:30 AM50 °FLow clouds.5 mph88%30.07 "Hg4 mi
1:00 AM48 °FLow clouds.12 mph94%30.04 "Hg4 mi
12:30 AM48 °FLow clouds.10 mph94%30.04 "Hg4 mi
12:00 AM48 °FLow clouds.10 mph87%30.04 "Hg4 mi
11:30 PM
Apr 16
48 °FLow clouds.10 mph87%30.04 "Hg4 mi
11:00 PM48 °FLow clouds.9 mph87%30.04 "Hg4 mi
10:30 PM48 °FLow clouds.9 mph87%30.04 "Hg4 mi
10:00 PM46 °FLow clouds.9 mph93%30.04 "Hg5 mi
9:30 PM46 °FLow clouds.12 mph87%30.04 "Hg5 mi
9:00 PM46 °FPassing clouds.13 mph87%30.04 "Hg5 mi
8:30 PM46 °FBroken clouds.12 mph87%30.04 "HgN/A
8:00 PM48 °FPartly sunny.12 mph87%30.01 "HgN/A
7:30 PM48 °FMostly cloudy.10 mph87%30.01 "HgN/A
7:00 PM48 °FMostly cloudy.12 mph87%30.01 "HgN/A
6:30 PM48 °FMostly cloudy.10 mph87%30.01 "HgN/A
6:00 PM48 °FMostly cloudy.9 mph87%30.01 "HgN/A
5:30 PM48 °FLight rain. Mostly cloudy.10 mph87%30.01 "HgN/A
5:00 PM48 °FLight rain. Mostly cloudy.9 mph87%30.01 "HgN/A
4:30 PM48 °FMostly cloudy.9 mph87%30.01 "HgN/A
4:00 PM48 °FMostly cloudy.12 mph87%30.01 "HgN/A
Weather by CustomWeather, © 2014

See weather overview